Location: Niverville
(49.6028°N, 97.0419°W)
Time: 10:46:13
(UTC-06:00)

Daily predictions for brighter satellites

Satellite Brightness Start Highest point End
(mag) Time Altitude Azimuth Time Altitude Azimuth Time Altitude Azimuth
NOSS 3-2 (A) 4.1 16:55:36 10° NW 17:02:39 54° NE 17:10:28 10° ESE
Cosmos 990 Rocket 4.3 17:00:36 10° S 17:05:33 50° ESE 17:10:35 10° NNE
SMAP 3.6 17:01:34 10° SE 17:05:49 37° ENE 17:10:06 10° N
Cosmos 1674 Rocket 4.3 17:04:34 10° SSW 17:08:48 56° WNW 17:13:05 10° N
NOSS 3-2 (C) 4.2 17:03:16 10° NW 17:10:13 49° NE 17:17:55 10° ESE
CSL-04 Debris 4.4 17:06:50 10° SE 17:12:00 49° ENE 17:17:11 10° N
BREEZE-M DEB (TANK) 3.2 17:10:28 10° W 17:12:34 38° SSW 17:16:49 10° SE
Cosmos 1378 Rocket 3.7 17:09:01 10° S 17:13:28 84° WNW 17:17:58 10° N
Cosmos 2263 Rocket 4.0 17:13:11 10° N 17:15:02 11° NNE 17:16:53 10° NE
ATLAS 3B R/B 2.6 17:10:30 10° NW 17:17:17 81° NE 17:23:50 10° SE
Meteor 1-18 Rocket 4.2 17:11:49 10° S 17:17:23 73° E 17:23:05 10° NNE
Cosmos 858 Rocket 4.5 17:12:21 10° SSW 17:17:32 77° ESE 17:22:44 10° NNE
ALOS 3.6 17:17:05 10° ESE 17:20:15 18° ENE 17:23:25 10° NNE
ATLAS 2AS CENTAUR R/B 3.3 17:13:20 10° SSW 17:20:55 57° ESE 17:28:50 10° NE
Meteor 1-28 Rocket 4.4 17:20:19 10° NE 17:23:25 24° E 17:26:31 10° SSE
NOSS 2-3 (E) 4.0 17:18:58 10° SW 17:23:45 90° N 17:29:32 10° NE
Cosmos 158 Rocket 4.0 17:18:54 10° NNW 17:23:57 55° ENE 17:28:51 10° SE
SL-16 R/B 4.3 17:19:02 10° N 17:24:00 26° NW 17:28:58 10° WSW
MSX 4.2 17:18:25 10° S 17:24:11 73° WSW 17:29:59 10° NNW
IRAS Rocket 4.2 17:20:34 10° SSE 17:26:01 71° ENE 17:31:30 10° NNW
CZ-4 R/B 1.8 17:24:50 10° SE 17:28:29 39° ENE 17:32:13 10° N
CSL-04 Rocket 3.7 17:23:21 10° SSE 17:28:46 73° ENE 17:34:18 10° NNW
Cosmos 1743 2.6 17:29:17 10° N 17:33:11 74° E 17:37:04 10° SSE
Cosmos 2369 Rocket 4.0 17:30:45 10° W 17:35:05 22° NW 17:39:27 10° N
USA 215 3.7 17:28:37 10° SE 17:35:07 67° SW 17:41:39 10° WNW
Cosmos 1634 Rocket 4.2 17:29:14 10° SSW 17:35:27 76° W 17:41:46 10° N
NOSS 3-1 (A) 4.4 17:31:29 10° W 17:37:13 41° NNW 17:43:45 10° NE
Cosmos 1697 Rocket 4.1 17:34:41 10° SE 17:38:32 19° E 17:41:05 14° ENE
Cosmos 1656 Rocket 4.5 17:35:19 10° SW 17:40:39 48° NW 17:45:58 10° NNE
Cosmos 2150 Rocket 4.1 17:35:43 10° SSW 17:41:11 87° ESE 17:46:40 10° NNE
Meteor 1-19 Rocket 4.4 17:37:18 10° S 17:42:51 56° E 17:48:32 10° NNE
OPS 6432 4.2 17:40:24 10° SW 17:43:49 87° NW 17:46:00 18° NE
Abrixas rocket 2.5 17:41:57 10° WSW 17:45:10 59° SSE 17:47:22 18° E
Cosmos 2082 3.6 17:40:16 10° NNW 17:45:55 76° ENE 17:51:33 10° SE
ISS -1.0 17:48:36 10° W 17:51:05 20° SW 17:53:33 10° S
Cosmos 2266 Rocket 4.0 17:46:28 10° N 17:52:30 60° ENE 17:58:33 10° SSE
Cosmos 1655 Rocket 4.3 17:46:37 10° NNW 17:52:59 74° W 17:59:21 10° S
BREEZE-M DEB (TANK) 3.3 17:54:38 10° W 17:57:08 67° SSW 18:02:22 10° ESE
CENTAUR R/B 3.3 17:49:55 10° NW 17:57:09 47° NNE 18:04:34 12° ESE
Cosmos 2227 Rocket 2.4 17:51:59 10° NNW 17:57:40 75° WSW 18:03:18 10° SSE
Cosmos 1455 Rocket 3.2 17:53:26 10° NNW 17:57:53 78° W 18:02:16 10° S
ERS-2 2.7 17:55:49 10° SE 17:59:09 34° ENE 18:02:31 10° N
CZ-2C R/B 4.4 17:55:48 10° SSW 18:00:27 33° W 18:05:04 10° NNW
USA 161 3.5 17:58:23 10° N 18:00:57 29° WNW 18:03:36 10° SW
Cosmos 1544 Rocket 4.0 17:57:49 10° NNW 18:02:10 65° W 18:06:27 10° S
SPOT 3 Rocket 3.8 17:57:46 10° SE 18:02:37 42° ENE 18:07:29 10° N
Cosmos 1271 Rocket 3.7 17:59:51 10° NNW 18:03:33 49° W 18:07:15 10° S
CORIOLIS 4.3 18:00:59 10° SSE 18:06:23 79° WSW 18:11:49 10° NNW
USA 116 3.3 18:07:16 29° NE 18:08:31 48° E 18:11:32 10° S
Meteor 2-9 Rocket 4.1 18:04:52 10° NNW 18:10:26 87° W 18:15:50 10° S
Ariane Rocket 3.6 18:06:09 10° S 18:11:08 60° WSW 18:16:09 10° NNW
Cosmos 2251 Rocket 4.2 18:06:35 10° N 18:11:20 32° NE 18:13:36 23° E
YAOGAN 1 2.4 18:07:40 10° SSE 18:11:59 81° ENE 18:16:21 10° NNW
CZ-4 R/B 4.3 18:09:44 10° SSE 18:13:52 79° ENE 18:18:02 10° NNW
Cosmos 494 Rocket 4.2 18:10:20 10° NNW 18:15:26 45° ENE 18:20:28 10° SE
MOS 1 4.2 18:10:10 10° SSE 18:15:47 68° ENE 18:21:27 10° NNW
STPSAT 2 (USA 217) 4.5 18:12:41 10° NNW 18:17:16 81° ENE 18:21:48 10° SSE
Cosmos 1269 Rocket 4.0 18:12:27 10° NNW 18:17:48 88° WSW 18:23:06 10° SSE
Cosmos 1943 Rocket 4.3 18:14:35 10° W 18:18:28 18° NW 18:22:22 10° N
Cosmos 1980 Rocket 3.3 18:14:59 10° SSE 18:19:24 24° ESE 18:19:35 24° E
Meteor 1-23 Rocket 4.3 18:15:19 10° S 18:20:54 55° E 18:26:13 11° NNE
Cosmos 1666 4.4 18:18:57 10° NNW 18:22:22 34° W 18:25:46 10° SSW
COSMO-SKYMED 1 2.7 18:21:49 27° NE 18:23:53 49° E 18:28:05 10° S
Cosmos 1125 Rocket 3.5 18:18:43 10° SSW 18:23:58 69° ESE 18:27:28 22° NNE
Cosmos 2297 Rocket 2.9 18:18:40 10° NW 18:24:13 56° WSW 18:29:43 10° S
CZ-2C R/B 3.7 18:21:44 11° NNE 18:26:12 83° ESE 18:30:56 10° SSW
Gblst 52 Del rocket 4.4 18:22:47 10° WNW 18:28:20 70° SSW 18:33:02 17° SE
MONITOR-E 4.0 18:28:45 10° SSE 18:31:48 85° ENE 18:34:53 10° NNW
SJ 16-02 1.2 18:28:34 10° SSW 18:32:58 81° ESE 18:35:02 31° NNE
Cosmos 1656 3.6 18:28:11 10° SSW 18:33:42 69° ESE 18:36:33 29° NE
SOZ 4.5 18:35:07 10° WNW 18:37:29 52° NW 18:37:29 52° NW
Cosmos 372 Rocket 3.9 18:35:01 10° SSW 18:40:14 88° ESE 18:43:10 27° NNE
MTI 3.7 18:40:59 73° SSE 18:40:59 73° SSE 18:43:58 10° SSW
Cosmos 2227 4.3 18:37:14 10° NNW 18:42:54 54° NE 18:45:09 34° ESE
COSMOS 2455 4.0 18:41:32 10° NNW 18:46:22 25° NNE 18:46:22 25° NNE
Meteor 2-11 Rocket 4.3 18:44:28 10° S 18:50:34 68° E 18:55:58 14° NNE
Meteor 2-4 Rocket 4.1 18:46:54 10° SSW 18:52:14 61° WNW 18:57:34 10° N
Cosmos 1553 Rocket 4.3 18:46:33 10° SSE 18:52:29 42° E 18:52:37 42° E
Okean 1-7 Rocket 4.1 18:51:05 10° S 18:54:16 43° SSE 18:54:16 43° SSE
NOAA 12 4.2 18:51:16 10° S 18:56:32 77° WSW 19:01:49 10° NNW
Cosmos 1025 Rocket 2.8 18:52:41 10° S 18:56:56 77° ESE 18:56:56 77° ESE
ALOS 2.5 18:52:33 10° S 18:57:12 70° WSW 19:01:53 10° NNW
Cosmos 1745 Rocket 4.1 18:54:39 10° N 19:00:41 50° ENE 19:01:15 49° E
Cosmos 2263 Rocket 3.1 18:55:39 10° NNW 18:59:25 31° NNE 18:59:25 31° NNE
NOSS 3-2 (C) 4.4 18:54:14 10° NW 19:01:33 62° SW 19:09:34 10° SSE
CZ-4 R/B 4.0 19:00:41 10° SW 19:03:41 21° W 19:06:46 10° NW
Cosmos 2369 3.9 18:58:02 10° SW 19:03:42 68° WNW 19:06:28 31° NNE
Cosmos 2278 3.9 18:58:34 10° SW 19:04:15 70° WNW 19:06:54 33° NNE
FENGYUN 3A 4.0 19:00:50 10° S 19:06:10 65° WSW 19:11:31 10° NNW
EO 1 Del DPAF 3.6 19:08:52 61° WSW 19:08:52 61° WSW 19:12:10 10° SSW
SKYMED 2 4.1 19:10:25 35° NNW 19:11:59 56° WNW 19:16:14 10° SSW
ATLAS 2AS CENTAUR R/B 3.6 19:04:22 10° WSW 19:12:10 54° NW 19:16:34 28° NNE
Cosmos 1241 Rocket 4.3 19:07:31 10° SSW 19:13:52 79° SE 19:15:07 59° NE
DNEPR-1 R/B 4.4 19:12:43 10° NW 19:17:39 63° SW 19:20:49 27° SSE
Cosmos 1697 Rocket 2.7 19:16:10 10° SSW 19:21:50 79° WNW 19:22:52 60° N
DMSP B5D1-3 4.5 19:21:04 65° N 19:21:50 82° WNW 19:26:57 10° SSW
Okean 2 4.2 19:20:54 10° SSW 19:24:16 48° WSW 19:24:16 48° WSW
BREEZE-M DEB (TANK) 3.5 19:26:13 10° W 19:28:46 67° WSW 19:28:46 67° WSW
NOSS 3-4 (A) 3.3 19:26:37 10° SW 19:32:52 87° SE 19:33:16 79° ENE
NOSS 3-4 (C) 3.3 19:26:43 10° SW 19:32:58 86° SE 19:33:20 80° ENE
Gbstr 26 Del rocket 4.1 19:33:08 10° WSW 19:41:00 77° SSE 19:41:19 76° SE
CENTAUR R/B 3.2 19:40:40 10° NW 19:48:25 70° SW 19:51:51 39° SSE
Cosmos 2251 Rocket 4.4 19:48:45 10° NNW 19:53:49 46° WSW 19:54:11 45° WSW
Cosmos 1980 Rocket 3.0 19:57:16 10° SW 20:01:25 47° WSW 20:01:25 47° WSW
SJ 16-02 4.0 20:09:25 10° W 20:12:04 16° NW 20:12:04 16° NW
Cosmos 2263 Rocket 4.4 20:39:32 10° NW 20:41:08 19° NW 20:41:08 19° NW
ATLAS 2AS CENTAUR R/B 4.4 20:57:57 10° WNW 21:04:01 30° NNW 21:04:01 30° NNW
